Regional Weather Roundup
Issued by NWS Green Bay, WI

Home | Current Version | Previous Version | Text Only | Print | Product List | Glossary On
Versions: 1 2 3 4 5 6 7 8 9 10 11 12 13 14 15 16 17 18 19 20 21 22 23 24 25 26 27 28 29 30 31 32 33 34 35 36 37 38 39 40 41 42 43 44 45 46 47 48 49 50
802
ASUS43 KGRB 271011
RWRGRB

NORTH-CENTRAL AND NORTHEAST WISCONSIN REGIONAL WEATHER ROUNDUP
NATIONAL WEATHER SERVICE GREEN BAY WI
500 AM CDT SAT AUG 27 2016

WIZ005-009-010>012-018-019-271100-
NORTH CENTRAL WISCONSIN

CITY           SKY/WX    TMP DP  RH WIND       PRES   REMARKS
IRONWOOD       PTCLDY    52  51  97 E3        30.14F
MANITOWISH WTR CLOUDY    51  51 100 CALM      30.14F
ARBOR VITAE    CLOUDY    57  55  92 CALM      30.14F
EAGLE RIVER    CLOUDY    53  53 100 CALM      30.15F
LAND O LAKES   CLOUDY    50  50 100 CALM      30.16F
RHINELANDER    CLOUDY    57  55  93 SE3       30.16S
PHILLIPS       CLOUDY    54  54  97 CALM      30.13S
ANTIGO         LGT RAIN  56  55  97 E6        30.15F
TOMAHAWK       CLOUDY    55  54  95 CALM      30.15S
MERRILL        CLOUDY    57  57 100 CALM      30.14F
$$

WIZ013-073-271100-
NORTHEAST WISCONSIN

CITY           SKY/WX    TMP DP  RH WIND       PRES   REMARKS
IRON MOUNTAIN  LGT RAIN  57  54  89 CALM      30.15R
MARINETTE      RAIN     N/A N/A N/A CALM      30.17
OCONTO         CLOUDY    61  60  96 N3        30.14R
$$

WIZ017-030-035>037-045-271100-
CENTRAL WISCONSIN

CITY           SKY/WX    TMP DP  RH WIND       PRES   REMARKS
MEDFORD        CLOUDY    57  57 100 SE3       30.12F
WAUSAU         CLOUDY    59  58  96 CALM      30.13S
MOSINEE        CLOUDY    57  57 100 E3        30.14F
MARSHFIELD     CLOUDY    60  56  86 E6        30.12F
WISC RAPIDS    LGT RAIN  60  59  96 E5        30.13F
STEVENS POINT  CLOUDY    58  57  99 E3        30.14S
WAUPACA        CLOUDY    62  62  98 N3        30.13S
SHAWANO        DRIZZLE   62  60  93 CALM      30.14F
CLINTONVILLE   LGT RAIN  61  59  94 N3        30.13F
WAUTOMA        LGT RAIN  60  59  96 N5        30.12
$$

WIZ038-039-048-051-271100-
FOX VALLEY

CITY           SKY/WX    TMP DP  RH WIND       PRES   REMARKS
NWS GREEN BAY  LGT RAIN  62  62 100 N3        30.13S
APPLETON       RAIN      63  55  77 E5        30.12F
OSHKOSH        RAIN      64  61  90 NE3       30.12S
FOND DU LAC    LGT RAIN  63  60  90 E5        30.12F
$$

WIZ022-050-052-271100-
EAST CENTRAL WISCONSIN

CITY           SKY/WX    TMP DP  RH WIND       PRES   REMARKS
EPHRAIM        LGT RAIN  62  60  94 N3        30.14R
WASHINGTON ISL NOT AVBL
STURGEON BAY   LGT RAIN  63  62  97 W3        30.17R
MANITOWOC      LGT RAIN  63  60  90 CALM      30.15R
SHEBOYGAN      HVY RAIN  62  60  93 CALM      30.14R FOG
$$

LMZ563-521-522-541>543-271100-
LAKESHORE

STATION/POSITION TIME  TEMP    WIND        PRES    VSBY  WAVE
                       AIR SEA DIR/SP/G                  HT/PER
                 (UTC) (F)     (DEG/KT/KT) (MB)    (MI)  (FT/S)
SHEBOYGAN LKSHOR 1000   61      40/  2/  2 1020.4R
KEWAUNEE LKSHORE 0900   60      40/  1/  3 1019.5F
NORTHPORT PIER   0900   67     150/  4/  5 1020.3S
N MID LAKE BUOY  0950   69 71  160/  4/  6 1020.0R         1
SISTER BAY LKSHO 0937   63        CALM       N/A
CHAMBERS ISLAND  0900   65     270/  2/  3 1020.3R
MENOMINEE LKSHOR 0900   63     150/  1/  4 1019.4F
$$




USA.gov is the U.S. government's official web portal to all federal, state and local government web resources and services.